Content
SEND FEEDBACK

Daily
Averages
Monthly
Summary
Czech Republic

BRNO, CZECH REPUBLIC


Home > Europe > Czech Republic
Elevation: 807 feet     Latitude: 49 09N     Longitude: 016 42E

WEATHER
 
SELECT A DAY
Number of Records: 296,943;   Date Range: 2/20/97 - 11/27/14
 
SHARE

PRINT THIS DATA

[ ← Previous Day ]
WEATHER ALMANAC - JANUARY 1, 2013
[ Next Day → ]
[ °C ]   °F
Weather ElementAverageHighLow
Temperature30.7 °F32 °F (12:30 am)28.4 °F (6:30 am)
Dewpoint27.4 °F28.4 °F (10:30 am)24.8 °F (4:00 am)
Humidity86.8 %93 % (7:00 am)69 % (1:00 am)
Barometer29.96 in30.07 in (1:00 am)29.92 in (12:30 pm)
Wind Speed7.5 mph11.2 mph (1:00 pm)
Weather ElementAverage
Visibility4.7 mi
Wind DirectionSE (132.4 °)

Weather ElementTotal
Precipitation---
Heating Degree Days34.8 (Base 65)
Averaged from 51 records on January 1, 2013
WEATHER CONDITIONS BREAKOUT
WIND DIRECTION BREAKOUT
WEATHER BY HOUR - JANUARY 1, 2013
[ °C ]   °F
Local TimeTemperatureDewpointHumidityBarometerVisibilityWind DirectionWind SpeedGust SpeedPrecipitationEventsConditions
12:30 AM32.0 °F26.6 °F80 %30.01 inEast (90°)5.8 mphClear
1:00 AM31.0 °F25.0 °F69 %30.07 in9.0 miEast (100°)6.7 mphScattered Clouds
1:00 AM30.2 °F26.6 °F86 %30.01 inEast (90°)6.9 mphClear
1:30 AM30.2 °F26.6 °F86 %29.98 inESE (110°)8.1 mphClear
2:00 AM32.0 °F26.6 °F80 %29.98 inEast (100°)8.1 mphClear
2:30 AM32.0 °F26.6 °F80 %29.98 inEast (100°)4.6 mphClear
3:00 AM30.2 °F26.6 °F86 %29.98 inESE (120°)8.1 mphClear
3:30 AM32.0 °F26.6 °F80 %29.98 inEast (100°)6.9 mphClear
4:00 AM30.2 °F24.8 °F80 %29.95 inEast (80°)6.9 mphClear
4:30 AM30.2 °F26.6 °F86 %29.95 inEast (90°)8.1 mphClear
5:00 AM30.2 °F26.6 °F86 %29.95 inESE (110°)9.2 mphClear
5:30 AM30.2 °F26.6 °F86 %29.95 inESE (110°)9.2 mphClear
6:00 AM32.0 °F26.6 °F80 %29.95 inESE (120°)9.2 mphClear
6:30 AM28.4 °F24.8 °F86 %29.95 inEast (90°)8.1 mphClear
7:00 AM29.0 °F25.0 °F77 %30.01 in7.0 miEast (100°)6.7 mphScattered Clouds
7:00 AM28.4 °F26.6 °F93 %29.95 inEast (90°)5.8 mphClear
7:30 AM28.4 °F24.8 °F86 %29.95 inESE (110°)8.1 mphClear
8:00 AM30.2 °F26.6 °F86 %29.95 inESE (110°)6.9 mphClear
8:30 AM30.2 °F26.6 °F86 %29.95 inESE (110°)6.9 mphClear
9:00 AM30.2 °F26.6 °F86 %29.95 inESE (120°)6.9 mphClear
9:30 AM32.0 °F26.6 °F80 %29.95 inSE (130°)8.1 mphClear
10:00 AM32.0 °F26.6 °F80 %29.95 inSE (130°)9.2 mphClear
10:30 AM32.0 °F28.4 °F87 %29.95 in6.2 miSE (130°)10.4 mphScattered Clouds
11:00 AM32.0 °F28.4 °F87 %29.95 in6.2 miSE (130°)9.2 mphOvercast
11:30 AM32.0 °F28.4 °F87 %29.95 in6.2 miSE (130°)9.2 mphOvercast
12:00 PM32.0 °F28.4 °F87 %29.95 in6.2 miSE (130°)9.2 mphOvercast
12:30 PM32.0 °F28.4 °F87 %29.92 in6.2 miSE (130°)9.2 mphOvercast
1:00 PM32.0 °F27.0 °F74 %29.98 in5.0 miSE (130°)11.2 mphMist
1:00 PM32.0 °F28.4 °F87 %29.92 in5.0 miSE (140°)9.2 mphMostly Cloudy
1:30 PM32.0 °F28.4 °F87 %29.92 in5.0 miSE (140°)9.2 mphMostly Cloudy
2:00 PM32.0 °F28.4 °F87 %29.92 in5.0 miSE (140°)9.2 mphMostly Cloudy
2:30 PM30.2 °F28.4 °F93 %29.92 in5.0 miSSE (150°)5.8 mphOvercast
3:00 PM30.2 °F28.4 °F93 %29.92 in4.3 miSSE (150°)6.9 mphOvercast
3:30 PM30.2 °F28.4 °F93 %29.92 in3.7 miSE (140°)9.2 mphOvercast
4:00 PM30.2 °F28.4 °F93 %29.92 in3.7 miSSE (150°)8.1 mphOvercast
4:30 PM30.2 °F28.4 °F93 %29.95 in3.7 miSE (140°)5.8 mphOvercast
5:00 PM30.2 °F28.4 °F93 %29.95 in3.7 miSE (140°)5.8 mphOvercast
5:30 PM30.2 °F28.4 °F93 %29.95 in3.7 miSE (140°)5.8 mphOvercast
6:00 PM30.2 °F28.4 °F93 %29.95 in3.7 miSSE (150°)6.9 mphOvercast
6:30 PM30.2 °F28.4 °F93 %29.95 in3.7 miSSE (160°)4.6 mphOvercast
7:00 PM31.0 °F27.0 °F79 %30.01 in4.0 miSouth (170°)6.7 mphMist
7:00 PM32.0 °F28.4 °F87 %29.95 in3.7 miSouth (170°)5.8 mphOvercast
7:30 PM32.0 °F28.4 °F87 %29.95 in4.3 miSouth (170°)5.8 mphOvercast
8:00 PM30.2 °F28.4 °F93 %29.95 in4.3 miSouth (170°)5.8 mphOvercast
8:30 PM30.2 °F28.4 °F93 %29.95 in3.7 miSSE (160°)5.8 mphOvercast
9:00 PM30.2 °F28.4 °F93 %29.95 in3.7 miSouth (170°)6.9 mphOvercast
9:30 PM30.2 °F28.4 °F93 %29.98 in4.3 miSouth (180°)8.1 mphOvercast
10:00 PM30.2 °F28.4 °F93 %29.98 in4.3 miSouth (190°)8.1 mphOvercast
10:30 PM30.2 °F28.4 °F93 %29.98 in4.3 miSouth (180°)6.9 mphOvercast
11:00 PM30.2 °F28.4 °F93 %29.98 in3.7 miSouth (180°)6.9 mphOvercast
11:30 PM30.2 °F28.4 °F93 %29.98 in3.7 miSouth (180°)5.8 mphOvercast
Hourly data recorded from LKTB, located miles away from Brno, Czech Republic







STORIES FROM OUR PARTNERS